Location: Peterborough
(44.3091°N, 78.3197°W)
Time: 03:36:28
(UTC-04:00)

Tiros 1 despin weight - Pass Details

Date: 28 March 2023
Orbit: 586 x 632 km, 48.2° (Epoch: 08 June)

Event Time Altitude Azimuth Distance (km) Brightness Sun altitude
Rises 20:52:58 0° 234° (SW) 2,798 ? -14.3°
Reaches altitude 10° 20:55:15 10° 230° (SW) 1,900 ? -14.7°
Maximum altitude 20:59:32 61° 151° (SSE) 669 ? -15.4°
Enters shadow 21:02:00 24° 78° (ENE) 1,224 ? -15.9°
Drops below altitude 10° 21:03:52 10° 71° (ENE) 1,918 - -16.2°
Sets 21:06:10 0° 68° (ENE) 2,827 - -16.6°
